| time (UTC) | temp C | wind direction | speed KPH | gust KPH | rain 1hr cm | rain 24hr cm | rain mn cm | humidity % | barometer mb |
| 20260504050328 | 10 | 52 | 0.0 | 1.6 | 0.00 | 0.00 | 0.00 | 51 | 1013.5 |
| 20260504045826 | 10 | 160 | 4.8 | 6.4 | 0.00 | 0.00 | 0.00 | 47 | 1013.4 |
| 20260504045326 | 10 | 298 | 3.2 | 3.2 | 0.00 | 0.00 | 0.00 | 47 | 1013.5 |
| 20260504044823 | 10 | 121 | 1.6 | 4.8 | 0.00 | 0.00 | 0.00 | 47 | 1013.4 |
| 20260504044320 | 10 | 223 | 4.8 | 6.4 | 0.00 | 0.00 | 0.00 | 47 | 1013.4 |
| 20260504043817 | 10 | 102 | 1.6 | 3.2 | 0.00 | 0.00 | 0.00 | 48 | 1013.6 |
| 20260504043314 | 10 | 139 | 3.2 | 4.8 | 0.00 | 0.00 | 0.00 | 48 | 1013.3 |
| 20260504042812 | 10 | 156 | 3.2 | 3.2 | 0.00 | 0.00 | 0.00 | 51 | 1013.5 |
| 20260504042308 | 10 | 113 | 0.0 | 0.0 | 0.00 | 0.00 | 0.00 | 51 | 1013.4 |
| 20260504041804 | 10 | 32 | 3.2 | 3.2 | 0.00 | 0.00 | 0.00 | 48 | 1013.4 |
| 20260504041300 | 10 | 104 | 1.6 | 1.6 | 0.00 | 0.00 | 0.00 | 48 | 1013.2 |
| 20260504040757 | 10 | 122 | 1.6 | 1.6 | 0.00 | 0.00 | 0.00 | 49 | 1013.0 |
| 20260504040254 | 10 | 164 | 4.8 | 4.8 | 0.00 | 0.00 | 0.00 | 46 | 1013.2 |
| 20260504035750 | 10 | 63 | 3.2 | 4.8 | 0.00 | 0.00 | 0.00 | 46 | 1013.1 |
| 20260504035247 | 10 | 151 | 3.2 | 4.8 | 0.00 | 0.00 | 0.00 | 45 | 1013.0 |
| 20260504034745 | 10 | 147 | 3.2 | 4.8 | 0.00 | 0.00 | 0.00 | 45 | 1012.9 |
| 20260504034242 | 10 | 146 | 4.8 | 4.8 | 0.00 | 0.00 | 0.00 | 46 | 1012.9 |
| 20260504033740 | 10 | 260 | 3.2 | 9.7 | 0.00 | 0.00 | 0.00 | 45 | 1012.9 |
| 20260504033237 | 10 | 111 | 1.6 | 3.2 | 0.00 | 0.00 | 0.00 | 45 | 1012.8 |
| 20260504032734 | 10 | 110 | 1.6 | 1.6 | 0.00 | 0.00 | 0.00 | 45 | 1012.8 |
| 20260504032231 | 11 | 114 | 1.6 | 1.6 | 0.00 | 0.00 | 0.00 | 44 | 1012.8 |
| 20260504031727 | 10 | 118 | 0.0 | 3.2 | 0.00 | 0.00 | 0.00 | 46 | 1013.0 |
| 20260504031225 | 10 | 92 | 1.6 | 3.2 | 0.00 | 0.00 | 0.00 | 45 | 1012.7 |
| 20260504030720 | 10 | 162 | 1.6 | 3.2 | 0.00 | 0.00 | 0.00 | 45 | 1012.9 |
| 20260504030218 | 10 | 128 | 0.0 | 1.6 | 0.00 | 0.00 | 0.00 | 45 | 1012.9 |
| 20260504025714 | 10 | 122 | 3.2 | 3.2 | 0.00 | 0.00 | 0.00 | 47 | 1012.9 |
| 20260504025211 | 10 | 174 | 4.8 | 4.8 | 0.00 | 0.00 | 0.00 | 46 | 1012.9 |
| 20260504024708 | 11 | 95 | 0.0 | 0.0 | 0.00 | 0.00 | 0.00 | 45 | 1013.0 |
| 20260504024205 | 10 | 157 | 4.8 | 6.4 | 0.00 | 0.00 | 0.00 | 45 | 1013.1 |
| 20260504023701 | 11 | 120 | 4.8 | 4.8 | 0.00 | 0.00 | 0.00 | 44 | 1012.8 |
| 20260504023157 | 10 | 306 | 3.2 | 3.2 | 0.00 | 0.00 | 0.00 | 44 | 1012.9 |
| 20260504022654 | 10 | 25 | 1.6 | 3.2 | 0.00 | 0.00 | 0.00 | 48 | 1013.0 |
| 20260504022150 | 10 | 84 | 0.0 | 0.0 | 0.00 | 0.00 | 0.00 | 49 | 1012.9 |
| 20260504021648 | 11 | 88 | 3.2 | 3.2 | 0.00 | 0.00 | 0.00 | 44 | 1012.9 |
| 20260504021144 | 10 | 256 | 4.8 | 4.8 | 0.00 | 0.00 | 0.00 | 46 | 1012.8 |
| 20260504020642 | 10 | 111 | 3.2 | 3.2 | 0.00 | 0.00 | 0.00 | 45 | 1012.8 |
| 20260504020137 | 9 | 85 | 0.0 | 0.0 | 0.00 | 0.00 | 0.00 | 50 | 1012.9 |
| 20260504015634 | 10 | 113 | 1.6 | 3.2 | 0.00 | 0.00 | 0.00 | 49 | 1012.9 |
| 20260504015131 | 10 | 95 | 0.0 | 0.0 | 0.00 | 0.00 | 0.00 | 49 | 1012.9 |
| 20260504014626 | 10 | 95 | 0.0 | 0.0 | 0.00 | 0.00 | 0.00 | 49 | 1012.9 |
| 20260504014124 | 10 | 162 | 3.2 | 4.8 | 0.00 | 0.00 | 0.00 | 45 | 1013.0 |
| 20260504013621 | 10 | 163 | 0.0 | 0.0 | 0.00 | 0.00 | 0.00 | 47 | 1012.8 |
| 20260504013118 | 10 | 179 | 0.0 | 0.0 | 0.00 | 0.00 | 0.00 | 46 | 1012.7 |
| 20260504012615 | 11 | 119 | 1.6 | 3.2 | 0.00 | 0.00 | 0.00 | 45 | 1012.8 |
| 20260504012113 | 10 | 156 | 3.2 | 3.2 | 0.00 | 0.00 | 0.00 | 44 | 1012.7 |
| 20260504011610 | 9 | 98 | 0.0 | 0.0 | 0.00 | 0.00 | 0.00 | 50 | 1012.6 |
| 20260504011106 | 9 | 98 | 0.0 | 0.0 | 0.00 | 0.00 | 0.00 | 50 | 1012.6 |
| 20260504010602 | 10 | 91 | 0.0 | 0.0 | 0.00 | 0.00 | 0.00 | 50 | 1012.5 |
| 20260504010058 | 10 | 119 | 1.6 | 3.2 | 0.00 | 0.00 | 0.00 | 42 | 1012.4 |
| 20260504005555 | 10 | 119 | 1.6 | 3.2 | 0.00 | 0.00 | 0.00 | 42 | 1012.4 |
| 20260504005052 | 11 | 116 | 0.0 | 0.0 | 0.00 | 0.00 | 0.00 | 42 | 1012.3 |
| 20260504004550 | 11 | 116 | 0.0 | 0.0 | 0.00 | 0.00 | 0.00 | 42 | 1012.3 |
| 20260504004047 | 11 | 112 | 1.6 | 1.6 | 0.00 | 0.00 | 0.00 | 43 | 1012.2 |
| 20260504003543 | 11 | 96 | 3.2 | 3.2 | 0.00 | 0.00 | 0.00 | 42 | 1012.1 |
| 20260504003040 | 11 | 134 | 0.0 | 0.0 | 0.00 | 0.00 | 0.00 | 44 | 1012.1 |
| 20260504002537 | 11 | 108 | 0.0 | 0.0 | 0.00 | 0.00 | 0.00 | 41 | 1012.1 |
| 20260504002034 | 11 | 115 | 0.0 | 0.0 | 0.00 | 0.00 | 0.00 | 42 | 1012.0 |
| 20260504001532 | 11 | 115 | 0.0 | 0.0 | 0.00 | 0.00 | 0.00 | 41 | 1012.0 |
| 20260504001027 | 11 | 145 | 3.2 | 3.2 | 0.00 | 0.00 | 0.00 | 39 | 1011.9 |
| 20260504000525 | 11 | 145 | 3.2 | 3.2 | 0.00 | 0.00 | 0.00 | 39 | 1011.9 |
| 20260504000022 | 11 | 145 | 3.2 | 3.2 | 0.00 | 0.00 | 0.00 | 39 | 1012.1 |
| 20260503235520 | 11 | 145 | 3.2 | 3.2 | 0.00 | 0.00 | 0.00 | 39 | 1011.6 |
| 20260503235017 | 12 | 108 | 0.0 | 0.0 | 0.00 | 0.00 | 0.00 | 40 | 1011.7 |
| 20260503234515 | 12 | 113 | 1.6 | 3.2 | 0.00 | 0.00 | 0.00 | 37 | 1011.3 |
| 20260503234013 | 12 | 113 | 1.6 | 3.2 | 0.00 | 0.00 | 0.00 | 37 | 1011.3 |
| 20260503233509 | 12 | 105 | 0.0 | 0.0 | 0.00 | 0.00 | 0.00 | 37 | 1011.3 |
| 20260503233005 | 12 | 106 | 0.0 | 0.0 | 0.00 | 0.00 | 0.00 | 39 | 1011.5 |
| 20260503232502 | 12 | 105 | 0.0 | 0.0 | 0.00 | 0.00 | 0.00 | 37 | 1011.3 |
| 20260503232000 | 12 | 142 | 0.0 | 0.0 | 0.00 | 0.00 | 0.00 | 36 | 1011.6 |
| 20260503231457 | 12 | 119 | 0.0 | 0.0 | 0.00 | 0.00 | 0.00 | 36 | 1011.5 |
| 20260503230954 | 13 | 136 | 1.6 | 1.6 | 0.00 | 0.00 | 0.00 | 35 | 1011.7 |
| 20260503230450 | 13 | 99 | 1.6 | 3.2 | 0.00 | 0.00 | 0.00 | 37 | 1011.6 |
| 20260503225948 | 13 | 188 | 6.4 | 6.4 | 0.00 | 0.00 | 0.00 | 34 | 1011.6 |
| 20260503225444 | 13 | 137 | 3.2 | 3.2 | 0.00 | 0.00 | 0.00 | 34 | 1011.3 |
| 20260503224940 | 13 | 38 | 4.8 | 6.4 | 0.00 | 0.00 | 0.00 | 34 | 1011.3 |
| 20260503224437 | 13 | 210 | 3.2 | 4.8 | 0.00 | 0.00 | 0.00 | 34 | 1011.3 |
| 20260503223935 | 13 | 72 | 3.2 | 3.2 | 0.00 | 0.00 | 0.00 | 33 | 1011.5 |
| 20260503223433 | 13 | 193 | 3.2 | 4.8 | 0.00 | 0.00 | 0.00 | 33 | 1011.3 |
| 20260503222928 | 13 | 205 | 3.2 | 6.4 | 0.00 | 0.00 | 0.00 | 34 | 1011.5 |
| 20260503222427 | 13 | 207 | 8.0 | 11.3 | 0.00 | 0.00 | 0.00 | 32 | 1011.2 |
| 20260503221925 | 13 | 189 | 8.0 | 11.3 | 0.00 | 0.00 | 0.00 | 32 | 1011.1 |
| 20260503221423 | 13 | 261 | 6.4 | 14.5 | 0.00 | 0.00 | 0.00 | 31 | 1011.1 |
| 20260503220919 | 13 | 303 | 6.4 | 9.7 | 0.00 | 0.00 | 0.00 | 31 | 1011.1 |
| 20260503220415 | 13 | 260 | 4.8 | 4.8 | 0.00 | 0.00 | 0.00 | 33 | 1011.2 |
| 20260503215913 | 13 | 176 | 6.4 | 6.4 | 0.00 | 0.00 | 0.00 | 31 | 1011.2 |
| 20260503215410 | 13 | 281 | 4.8 | 6.4 | 0.00 | 0.00 | 0.00 | 32 | 1011.1 |
| 20260503214907 | 13 | 228 | 8.0 | 14.5 | 0.00 | 0.00 | 0.00 | 31 | 1011.0 |
| 20260503214404 | 13 | 244 | 8.0 | 11.3 | 0.00 | 0.00 | 0.00 | 31 | 1010.9 |
| 20260503213902 | 13 | 184 | 8.0 | 11.3 | 0.00 | 0.00 | 0.00 | 31 | 1010.9 |
| 20260503213400 | 13 | 149 | 1.6 | 3.2 | 0.00 | 0.00 | 0.00 | 32 | 1011.0 |
| 20260503212856 | 13 | 178 | 4.8 | 4.8 | 0.00 | 0.00 | 0.00 | 31 | 1011.0 |
| 20260503212354 | 13 | 213 | 9.7 | 12.9 | 0.00 | 0.00 | 0.00 | 31 | 1011.1 |
| 20260503211851 | 13 | 203 | 4.8 | 6.4 | 0.00 | 0.00 | 0.00 | 32 | 1010.8 |
| 20260503211347 | 13 | 201 | 8.0 | 11.3 | 0.00 | 0.00 | 0.00 | 31 | 1010.9 |
| 20260503210842 | 13 | 144 | 0.0 | 9.7 | 0.00 | 0.00 | 0.00 | 33 | 1010.8 |
| 20260503210340 | 13 | 93 | 0.0 | 0.0 | 0.00 | 0.00 | 0.00 | 36 | 1010.9 |
| 20260503205835 | 13 | 35 | 3.2 | 3.2 | 0.00 | 0.00 | 0.00 | 32 | 1010.7 |
| 20260503205332 | 13 | 102 | 3.2 | 9.7 | 0.00 | 0.00 | 0.00 | 31 | 1011.0 |
| 20260503204828 | 13 | 351 | 8.0 | 14.5 | 0.00 | 0.00 | 0.00 | 31 | 1011.0 |
| 20260503204326 | 13 | 103 | 3.2 | 11.3 | 0.00 | 0.00 | 0.00 | 31 | 1011.1 |
| 20260503203823 | 13 | 22 | 3.2 | 4.8 | 0.00 | 0.00 | 0.00 | 32 | 1010.9 |
| 20260503203320 | 12 | 85 | 3.2 | 4.8 | 0.00 | 0.00 | 0.00 | 33 | 1011.0 |
| 20260503202817 | 13 | 271 | 9.7 | 11.3 | 0.00 | 0.00 | 0.00 | 32 | 1011.2 |
| 20260503202315 | 13 | 357 | 4.8 | 4.8 | 0.00 | 0.00 | 0.00 | 33 | 1011.2 |
| 20260503201813 | 13 | 217 | 6.4 | 9.7 | 0.00 | 0.00 | 0.00 | 34 | 1011.1 |
| 20260503201310 | 13 | 156 | 3.2 | 4.8 | 0.00 | 0.00 | 0.00 | 34 | 1011.0 |
| 20260503200802 | 13 | 157 | 6.4 | 16.1 | 0.00 | 0.00 | 0.00 | 32 | 1011.3 |
| 20260503200258 | 12 | 85 | 1.6 | 9.7 | 0.00 | 0.00 | 0.00 | 33 | 1011.3 |
| 20260503195755 | 13 | 256 | 11.3 | 14.5 | 0.00 | 0.00 | 0.00 | 33 | 1011.7 |
| 20260503195251 | 13 | 175 | 12.9 | 20.9 | 0.00 | 0.00 | 0.00 | 32 | 1011.3 |
| 20260503194744 | 13 | 12 | 3.2 | 11.3 | 0.00 | 0.00 | 0.00 | 31 | 1011.5 |
| 20260503194239 | 13 | 95 | 1.6 | 6.4 | 0.00 | 0.00 | 0.00 | 32 | 1011.7 |
| 20260503193735 | 13 | 84 | 4.8 | 14.5 | 0.00 | 0.00 | 0.00 | 31 | 1011.7 |
| 20260503193231 | 13 | 320 | 8.0 | 16.1 | 0.00 | 0.00 | 0.00 | 31 | 1011.8 |
| 20260503192727 | 13 | 348 | 3.2 | 11.3 | 0.00 | 0.00 | 0.00 | 31 | 1011.6 |
| 20260503192222 | 13 | 251 | 6.4 | 9.7 | 0.00 | 0.00 | 0.00 | 33 | 1011.6 |
| 20260503191720 | 13 | 324 | 3.2 | 6.4 | 0.00 | 0.00 | 0.00 | 34 | 1011.8 |
| 20260503191217 | 13 | 98 | 3.2 | 6.4 | 0.00 | 0.00 | 0.00 | 32 | 1011.6 |
| 20260503190714 | 13 | 345 | 4.8 | 6.4 | 0.00 | 0.00 | 0.00 | 31 | 1011.2 |
| 20260503190210 | 13 | 59 | 4.8 | 11.3 | 0.00 | 0.00 | 0.00 | 31 | 1011.8 |
| 20260503185708 | 13 | 266 | 6.4 | 17.7 | 0.00 | 0.00 | 0.00 | 33 | 1011.7 |
| 20260503185203 | 13 | 227 | 6.4 | 9.7 | 0.00 | 0.00 | 0.00 | 31 | 1011.9 |
| 20260503184657 | 12 | 331 | 6.4 | 11.3 | 0.00 | 0.00 | 0.00 | 33 | 1011.7 |
| 20260503184154 | 12 | 291 | 6.4 | 6.4 | 0.00 | 0.00 | 0.00 | 33 | 1011.9 |
| 20260503183650 | 13 | 36 | 6.4 | 14.5 | 0.00 | 0.00 | 0.00 | 36 | 1011.9 |
| 20260503183148 | 12 | 339 | 4.8 | 14.5 | 0.00 | 0.00 | 0.00 | 32 | 1012.1 |
| 20260503182646 | 12 | 274 | 4.8 | 6.4 | 0.00 | 0.00 | 0.00 | 35 | 1012.0 |
| 20260503182144 | 12 | 192 | 4.8 | 12.9 | 0.00 | 0.00 | 0.00 | 35 | 1011.8 |
| 20260503181641 | 13 | 23 | 9.7 | 12.9 | 0.00 | 0.00 | 0.00 | 34 | 1012.1 |
| 20260503181138 | 11 | 262 | 4.8 | 6.4 | 0.00 | 0.00 | 0.00 | 36 | 1011.9 |
| 20260503180635 | 11 | 66 | 8.0 | 9.7 | 0.00 | 0.00 | 0.00 | 35 | 1011.9 |
| 20260503180132 | 11 | 64 | 6.4 | 12.9 | 0.00 | 0.00 | 0.00 | 35 | 1012.1 |
| 20260503175629 | 12 | 239 | 9.7 | 11.3 | 0.00 | 0.00 | 0.00 | 34 | 1012.1 |
| 20260503175126 | 12 | 259 | 6.4 | 12.9 | 0.00 | 0.00 | 0.00 | 33 | 1012.0 |
| 20260503174623 | 11 | 80 | 1.6 | 3.2 | 0.00 | 0.00 | 0.00 | 36 | 1011.9 |
| 20260503174120 | 11 | 153 | 3.2 | 12.9 | 0.00 | 0.00 | 0.00 | 38 | 1012.1 |
| 20260503173615 | 11 | 240 | 9.7 | 11.3 | 0.00 | 0.00 | 0.00 | 34 | 1012.1 |
| 20260503173112 | 12 | 43 | 3.2 | 3.2 | 0.00 | 0.00 | 0.00 | 35 | 1012.0 |
| 20260503172609 | 11 | 141 | 3.2 | 12.9 | 0.00 | 0.00 | 0.00 | 35 | 1012.1 |
| 20260503172106 | 11 | 100 | 4.8 | 6.4 | 0.00 | 0.00 | 0.00 | 34 | 1012.0 |
| 20260503171602 | 11 | 345 | 4.8 | 12.9 | 0.00 | 0.00 | 0.00 | 37 | 1012.3 |
| 20260503171100 | 10 | 39 | 8.0 | 14.5 | 0.00 | 0.00 | 0.00 | 37 | 1012.6 |
| 20260503170556 | 10 | 136 | 1.6 | 20.9 | 0.00 | 0.00 | 0.00 | 37 | 1012.5 |
| 20260503150943 | 8 | 23 | 11.3 | 16.1 | 0.00 | 0.00 | 0.00 | 48 | 1013.4 |
| 20260503150439 | 7 | 59 | 3.2 | 3.2 | 0.00 | 0.00 | 0.00 | 51 | 1013.2 |
| 20260503131332 | 6 | 64 | 3.2 | 6.4 | 0.00 | 0.00 | 0.00 | 57 | 1013.1 |
| 20260503130830 | 6 | 173 | 3.2 | 4.8 | 0.00 | 0.00 | 0.00 | 59 | 1013.2 |
| 20260503130327 | 6 | 116 | 0.0 | 1.6 | 0.00 | 0.00 | 0.00 | 59 | 1013.0 |
| 20260503110720 | 4 | 146 | 3.2 | 4.8 | 0.00 | 0.00 | 0.00 | 67 | 1012.6 |
| 20260503110218 | 4 | 96 | 1.6 | 3.2 | 0.00 | 0.00 | 0.00 | 67 | 1012.4 |
| 20260503100143 | 4 | 338 | 6.4 | 6.4 | 0.00 | 0.00 | 0.00 | 66 | 1011.3 |
| 20260503081538 | 5 | 71 | 1.6 | 3.2 | 0.00 | 0.00 | 0.00 | 62 | 1011.0 |
| 20260503081036 | 5 | 68 | 3.2 | 6.4 | 0.00 | 0.00 | 0.00 | 60 | 1011.1 |
| 20260503080531 | 5 | 104 | 6.4 | 6.4 | 0.00 | 0.00 | 0.00 | 61 | 1011.0 |
| 20260503072505 | 6 | 77 | 3.2 | 4.8 | 0.00 | 0.00 | 0.00 | 60 | 1010.7 |
| 20260503072003 | 6 | 357 | 3.2 | 3.2 | 0.00 | 0.00 | 0.00 | 59 | 1010.7 |
| 20260503071459 | 6 | 82 | 4.8 | 6.4 | 0.00 | 0.00 | 0.00 | 59 | 1010.5 |
| 20260503070955 | 6 | 82 | 1.6 | 6.4 | 0.00 | 0.00 | 0.00 | 59 | 1010.7 |
| 20260503070452 | 6 | 16 | 3.2 | 4.8 | 0.00 | 0.00 | 0.00 | 60 | 1010.7 |
| 20260503054906 | 6 | 36 | 3.2 | 4.8 | 0.00 | 0.00 | 0.00 | 60 | 1010.8 |
| 20260503054402 | 6 | 358 | 3.2 | 4.8 | 0.00 | 0.00 | 0.00 | 60 | 1011.0 |
| 20260503053901 | 6 | 64 | 1.6 | 1.6 | 0.00 | 0.00 | 0.00 | 62 | 1011.2 |
| 20260503053358 | 6 | 80 | 0.0 | 1.6 | 0.00 | 0.00 | 0.00 | 61 | 1011.5 |
| 20260503052854 | 6 | 82 | 0.0 | 0.0 | 0.00 | 0.00 | 0.00 | 61 | 1011.3 |
| 20260503052351 | 6 | 94 | 0.0 | 0.0 | 0.00 | 0.00 | 0.00 | 65 | 1011.5 |